Zurück zum Katalog

SL-16 DEB

AktivLEO
NORAD 22337·DEBRIS·🇷🇺 Russia

Gestartet Dec 25, 1992 von Baikonur Cosmodrome

Loading…

Nächste Überflüge (nächste 24 Stunden)

TLE

AktuellSource: Space-Track

Epoche: Sep 14, 2026, 15:07 UTC

1 22337U 92093AA  26257.63024026  .00000035  00000-0  62484-4 0  9991
2 22337  71.2898 142.5202 0146215 119.4790 242.0996 13.84584984702027

Verfolge SL-16 DEB in Echtzeit mit AllMySat

Download on the App Store